This is the latest recevied weather packets stored in our database for station/object VR2OT-10. If no packets are shown the sender has not sent any weather packets the latest 10 day(s).
| Time | Temp. | Humidity | Pressure | Rain* | Wind** | Luminosity | Snow |
|---|---|---|---|---|---|---|---|
| 1787907332 | 32.22° C | 70% | 998.8 hPa | - | 3.13 m/s, 270° | - | - |
| 1787906434 | 32.22° C | 70% | 998.7 hPa | - | 3.58 m/s, 270° | - | - |
| 1787905532 | 32.22° C | 70% | 998.8 hPa | - | 2.24 m/s, 270° | - | - |
| 1787904633 | 32.22° C | 73% | 998.8 hPa | - | 3.58 m/s, 270° | - | - |
| 1787903732 | 32.78° C | 72% | 999.2 hPa | - | 4.47 m/s, 270° | - | - |
| 1787902831 | 32.22° C | 71% | 999.3 hPa | - | 4.47 m/s, 270° | - | - |
| 1787901933 | 32.22° C | 70% | 999.4 hPa | - | 3.58 m/s, 270° | - | - |
| 1787901034 | 32.22° C | 73% | 999.5 hPa | - | 4.02 m/s, 270° | - | - |
| 1787899233 | 31.67° C | 74% | 999.9 hPa | - | 4.02 m/s, 270° | - | - |
| 1787898333 | 31.11° C | 75% | 1000.3 hPa | - | 4.92 m/s, 270° | - | - |
| 1787897432 | 31.67° C | 75% | 1000.5 hPa | - | 4.92 m/s, 270° | - | - |
| 1787896533 | 31.67° C | 74% | 1000.6 hPa | - | 3.13 m/s, 315° | - | - |
| 1787895633 | 31.67° C | 76% | 1000.7 hPa | - | 3.58 m/s, 270° | - | - |
| 1787894731 | 31.11° C | 76% | 1001.1 hPa | - | 1.79 m/s, 270° | - | - |
| 1787893834 | 30.56° C | 78% | 1001.3 hPa | - | 2.68 m/s, 270° | - | - |
| 1787892933 | 31.11° C | 76% | 1001.7 hPa | - | 3.13 m/s, 270° | - | - |
| 1787892031 | 31.11° C | 77% | 1002 hPa | - | 3.13 m/s, 270° | - | - |
| 1787891132 | 31.11° C | 78% | 1002.1 hPa | - | 2.68 m/s, 270° | - | - |
| 1787890234 | 30.56° C | 79% | 1002.2 hPa | - | 2.68 m/s, 270° | - | - |
| 1787889332 | 30° C | 79% | 1002.5 hPa | - | 2.68 m/s, 270° | - | - |
| 1787888433 | 30° C | 78% | 1002.6 hPa | - | 2.24 m/s, 270° | - | - |
| 1787887532 | 30.56° C | 82% | 1002.7 hPa | - | 1.79 m/s, 270° | - | - |
| 1787886631 | 30.56° C | 82% | 1002.8 hPa | - | 2.24 m/s, 270° | - | - |
| 1787885733 | 30.56° C | 79% | 1003 hPa | - | 2.68 m/s, 270° | - | - |
| 1787884834 | 30° C | 79% | 1003.2 hPa | - | 2.24 m/s, 270° | - | - |
* Rain since midnight (hover to see other rain measurements)
** Current wind speed in m/s (hover to see current wind gust speed)